ENMS Weather Reports


time (UTC)temp
C
wind
direction
speed
KPH
gust
KPH
rain 1hr
cm
rain 24hr
cm
rain mn
cm
humidity
%
barometer
mb
20260507123308 5 260 11.3 0.0 0.00 0.00 0.00 65 1016.0
20260507120307 5 230 16.1 0.0 0.00 0.00 0.00 56 1016.0
20260507113308 6 190 11.3 0.0 0.00 0.00 0.00 56 1016.0
20260507110307 5 190 12.9 0.0 0.00 0.00 0.00 56 1015.0
20260507103307 5 220 14.5 0.0 0.00 0.00 0.00 56 1015.0
20260507100308 5 210 16.1 0.0 0.00 0.00 0.00 56 1015.0
20260507093307 5 210 14.5 0.0 0.00 0.00 0.00 56 1015.0
20260507090308 5 240 12.9 0.0 0.00 0.00 0.00 56 1015.0
20260507083307 5 140 9.7 0.0 0.00 0.00 0.00 60 1014.0
20260507080308 5 190 16.1 0.0 0.00 0.00 0.00 70 1014.0
20260507073307 5 180 19.3 0.0 0.00 0.00 0.00 65 1014.0
20260507070307 5 180 11.3 0.0 0.00 0.00 0.00 65 1014.0
20260507063307 5 100 4.8 0.0 0.00 0.00 0.00 70 1014.0
20260507053307 2 200 11.3 0.0 0.00 0.00 0.00 80 1013.0
20260507050307 2 200 9.7 0.0 0.00 0.00 0.00 80 1013.0
20260507043308 1 220 8.0 0.0 0.00 0.00 0.00 86 1013.0
20260507040308 0 0 0.0 0.0 0.00 0.00 0.00 86 1013.0
20260507033307 0 200 8.0 0.0 0.00 0.00 0.00 86 1013.0
20260507030306 0 190 9.7 0.0 0.00 0.00 0.00 93 1013.0
20260507023307 0 150 4.8 0.0 0.00 0.00 0.00 86 1013.0
20260507020307 0 0 3.2 0.0 0.00 0.00 0.00 93 1013.0
20260507013307 0 150 4.8 0.0 0.00 0.00 0.00 93 1013.0
20260507010306 0 0 3.2 0.0 0.00 0.00 0.00 93 1012.0
20260507003307 0 0 0.0 0.0 0.00 0.00 0.00 93 1012.0
20260507000307 0 0 0.0 0.0 0.00 0.00 0.00 93 1012.0
20260506233307 0 0 0.0 0.0 0.00 0.00 0.00 86 1012.0
20260506230307 0 0 3.2 0.0 0.00 0.00 0.00 93 1012.0
20260506223307 0 240 4.8 0.0 0.00 0.00 0.00 86 1012.0
20260506220307 0 0 3.2 0.0 0.00 0.00 0.00 93 1012.0
20260506213307 1 0 3.2 0.0 0.00 0.00 0.00 86 1012.0
20260506210307 1 0 3.2 0.0 0.00 0.00 0.00 86 1012.0
20260506203306 1 170 4.8 0.0 0.00 0.00 0.00 86 1011.0
20260506200306 2 0 3.2 0.0 0.00 0.00 0.00 80 1011.0
20260506193307 2 160 8.0 0.0 0.00 0.00 0.00 86 1011.0
20260506190306 3 170 9.7 0.0 0.00 0.00 0.00 80 1011.0
20260506183307 3 170 11.3 0.0 0.00 0.00 0.00 75 1011.0
20260506180307 5 0 3.2 0.0 0.00 0.00 0.00 70 1011.0
20260506173308 5 220 11.3 0.0 0.00 0.00 0.00 70 1011.0
20260506170307 5 190 16.1 0.0 0.00 0.00 0.00 75 1010.0
20260506163307 5 180 4.8 0.0 0.00 0.00 0.00 80 1010.0
20260506160307 5 160 9.7 0.0 0.00 0.00 0.00 75 1010.0
20260506153307 3 170 14.5 0.0 0.00 0.00 0.00 80 1010.0
20260506150307 2 170 12.9 0.0 0.00 0.00 0.00 86 1010.0
20260506143307 5 190 11.3 0.0 0.00 0.00 0.00 70 1010.0
20260506140307 5 180 16.1 0.0 0.00 0.00 0.00 70 1010.0
20260506133307 5 170 14.5 0.0 0.00 0.00 0.00 70 1009.0
20260506130308 5 210 4.8 0.0 0.00 0.00 0.00 70 1009.0